Theta_e
309 309 309 309 309 309 309 309 309 309 309 310 310 311 311 312 312 312 314 314 313 313 313 312 313 313 317 316 314 316 312 313 315 315 316 317 316 317 317 316 316 315 317 316 315
309 309 309 309 309 309 309 309 309 309 309 310 310 311 311 312 313 314 314 313 313 313 312 315 315 316 317 318 318 315 311 315 313 314 315 316 317 316 316 316 315 314 313 313 313
309 309 309 309 309 309 309 309 309 309 310 310 311 311 312 312 315 314 312 311 312 312 312 315 314 315 316 316 317 317 313 314 313 315 316 317 317 317 316 315 315 315 314 314 313
309 309 309 309 308 309 309 309 309 309 310 310 311 311 312 313 316 313 312 311 311 311 312 314 315 316 315 315 317 314 316 315 316 315 315 316 316 316 316 315 315 315 315 314 313
309 309 308 308 308 308 308 309 309 310 310 310 311 311 312 316 318 317 316 312 312 311 313 315 315 316 315 315 316 315 315 316 316 316 315 316 316 315 315 315 315 314 313 313 312
308 308 308 308 308 308 309 309 310 310 310 311 312 313 315 317 316 318 318 316 314 312 312 314 315 315 315 315 314 315 315 315 316 316 316 315 314 315 315 315 314 314 313 312 312
307 307 308 308 308 309 309 310 310 311 312 314 315 316 317 316 316 318 318 318 318 316 314 313 314 315 315 315 315 315 313 313 315 315 314 315 313 312 315 314 314 313 312 311 311
309 309 309 310 310 311 311 312 313 314 315 316 316 316 316 317 318 319 319 319 318 316 314 315 315 314 315 315 315 314 314 315 315 313 314 315 314 314 315 314 313 312 311 311 310
313 313 313 314 314 314 315 315 316 316 316 315 315 315 316 317 318 318 318 318 318 317 315 315 314 314 313 311 312 313 314 314 315 314 312 312 313 312 312 313 312 312 311 311 310
316 316 316 316 316 316 316 316 316 315 315 315 315 317 316 317 317 317 316 316 316 315 314 313 313 311 311 310 315 315 315 315 316 314 312 311 311 311 312 312 312 312 312 311 311
319 318 318 317 317 317 316 316 317 320 316 317 317 317 318 316 316 315 316 315 315 314 313 313 311 313 313 310 313 315 315 315 314 315 313 311 311 311 313 311 310 312 312 311 311
323 322 321 321 320 320 319 318 318 317 316 316 317 317 318 317 315 315 315 315 314 313 313 313 312 313 313 312 313 314 314 314 313 314 312 312 312 311 311 310 312 312 312 311 309
324 323 322 322 322 322 322 322 319 319 319 320 320 318 317 317 317 316 315 314 313 313 313 313 315 314 314 315 315 314 315 314 315 314 312 312 313 312 311 312 313 312 311 311 310
323 323 323 323 322 322 322 322 322 321 320 322 320 319 318 317 316 316 315 315 313 315 314 313 314 315 314 315 314 315 314 314 315 315 314 312 317 314 313 312 309 312 311 311 309
319 323 323 321 322 323 323 322 322 320 325 318 317 317 317 318 314 312 313 314 313 313 314 315 314 314 315 314 313 314 313 314 314 313 313 314 313 315 313 314 314 310 310 311 309
309 316 321 321 322 322 322 322 322 323 325 318 314 315 315 315 311 311 312 312 312 313 312 312 313 312 312 311 312 311 312 312 312 312 314 313 314 316 315 315 313 308 308 308 307
309 310 309 317 320 321 322 321 321 320 321 318 315 315 316 315 311 311 311 310 312 314 313 313 312 312 312 313 311 311 312 315 317 314 316 313 314 317 314 313 312 306 307 307 306
306 307 308 309 318 320 321 320 321 319 320 316 316 316 318 315 314 312 311 311 310 311 314 315 318 312 310 313 312 311 312 314 317 318 316 311 314 316 311 309 310 311 310 306 305
306 307 306 307 310 317 319 321 317 318 319 317 316 318 319 317 315 313 311 312 311 311 315 316 318 310 309 311 312 311 313 314 316 300 310 314 312 311 309 308 306 306 305 304 304
308 310 310 308 311 315 318 320 317 317 318 316 321 318 320 318 318 314 313 313 315 312 313 317 320 310 308 311 312 311 310 313 317 316 316 315 315 318 312 308 305 303 303 303 303
310 311 310 310 310 315 314 317 315 316 317 319 319 320 321 320 318 316 317 315 314 313 313 315 317 311 310 311 312 312 312 313 315 313 314 314 316 311 312 309 306 304 304 303 301
310 311 310 311 313 312 311 311 312 316 315 316 317 318 320 321 319 318 317 318 315 314 314 314 318 310 311 309 309 312 313 314 318 315 311 313 318 307 307 309 307 305 304 303 302
309 308 309 312 312 311 309 310 310 311 314 316 316 316 317 319 321 319 317 317 315 315 316 315 316 319 318 314 312 311 311 314 314 314 317 317 318 307 307 307 307 306 305 303 301
306 307 310 311 311 310 310 310 310 311 312 315 315 316 317 318 317 317 317 315 315 315 316 315 314 317 321 317 313 311 309 311 314 317 316 318 317 312 308 309 306 306 306 304 302
304 307 308 309 309 311 310 311 310 311 310 312 314 315 316 318 317 318 316 314 311 313 315 314 316 314 316 316 314 312 311 310 313 314 316 317 315 315 312 311 309 310 306 304 301
303 305 307 308 308 308 308 312 312 310 313 313 312 313 314 316 315 316 315 315 314 310 313 312 315 312 316 314 314 315 314 315 313 313 314 314 314 312 312 311 309 309 306 303 302
301 302 302 304 306 307 308 306 310 312 312 312 314 314 315 315 312 314 315 313 313 311 311 310 312 312 317 312 313 315 313 314 315 315 312 313 312 311 308 306 309 309 307 305 305
Wind_Speed
7 7 6 5 5 4 3 3 3 2 3 3 3 4 6 5 6 5 3 2 3 3 2 2 3 5 5 4 4 2 4 1 3 2 3 6 3 3 5 7 4 4 8 11 12
7 6 6 5 5 4 4 4 4 4 4 4 5 5 6 6 6 3 3 3 2 2 4 5 3 5 3 3 3 4 3 1 1 3 2 4 6 7 3 6 4 8 10 11 11
9 8 7 7 6 5 5 5 5 5 6 6 7 6 6 6 3 3 4 3 2 3 4 5 5 3 3 2 2 2 3 1 5 4 5 2 3 4 3 1 5 12 13 10 11
11 10 9 8 8 7 7 6 7 7 7 7 7 7 6 5 3 2 3 4 6 7 7 8 5 2 1 1 3 2 5 1 1 1 1 1 2 2 6 6 8 11 11 11 10
13 12 11 10 9 8 8 8 8 8 8 8 8 8 5 2 3 4 3 1 2 4 5 4 3 1 0 2 2 3 3 2 3 4 4 4 6 4 5 11 11 11 11 11 10
14 13 12 11 10 10 9 9 8 8 8 9 9 8 6 4 5 5 5 6 6 5 5 5 2 1 2 1 1 1 5 7 5 11 6 5 5 3 7 17 15 13 13 12 11
15 14 13 12 11 11 10 9 9 9 9 9 9 8 9 10 9 5 5 5 6 7 6 7 6 3 1 2 2 4 4 7 12 12 5 9 7 10 17 18 17 14 14 14 13
17 15 14 12 11 11 10 10 9 9 9 8 8 8 7 8 11 12 13 12 9 8 8 6 6 4 3 1 2 2 1 2 4 10 5 9 9 9 17 23 17 16 15 14 14
17 15 14 12 11 10 10 9 9 9 9 8 7 5 7 8 12 13 13 10 9 9 8 6 6 3 3 5 4 2 4 5 7 9 5 5 7 2 17 17 17 18 19 19 17
16 14 13 12 10 9 8 8 9 9 10 8 10 5 12 7 6 5 9 8 6 7 6 5 4 2 1 4 6 6 4 5 5 5 2 6 10 5 16 18 22 23 24 24 23
17 15 13 13 10 8 6 5 4 3 9 10 6 4 2 9 6 7 11 12 7 6 5 6 4 9 11 9 5 2 3 5 6 4 6 9 9 11 23 24 24 28 31 31 27
19 17 14 12 10 9 7 4 4 1 7 13 17 19 14 9 5 9 15 13 8 6 6 2 9 12 8 8 9 8 9 10 6 6 5 9 13 10 10 17 32 38 39 35 29
20 17 15 12 11 12 10 8 6 3 4 8 21 22 24 26 14 19 22 13 6 7 9 8 6 11 7 5 6 6 7 5 10 6 4 6 11 9 10 26 29 37 34 37 38
20 16 17 16 15 15 15 8 10 1 2 5 8 5 13 14 7 21 26 12 7 11 6 8 14 3 5 5 8 7 6 8 6 3 6 3 10 8 6 11 11 30 32 36 37
13 19 17 18 9 15 13 6 11 7 4 1 3 5 15 12 7 2 27 9 6 7 6 8 6 8 8 7 8 6 1 1 2 4 3 2 5 2 3 10 17 16 27 35 37
16 12 14 15 20 15 10 7 16 4 10 3 4 3 5 2 2 4 6 4 2 0 3 5 0 5 8 2 5 6 6 6 4 3 6 9 10 4 6 17 4 9 28 31 33
17 15 16 18 17 22 17 12 3 4 1 6 5 6 4 6 4 4 5 5 6 4 6 2 8 3 6 4 2 5 7 2 3 1 7 3 9 17 11 7 6 13 28 31 32
13 18 22 23 18 14 22 5 7 5 6 3 4 7 6 6 5 6 6 5 7 3 2 6 5 13 7 12 8 8 8 5 7 4 4 3 7 6 7 6 6 19 31 36 36
15 15 22 24 20 22 14 6 6 6 6 8 3 4 5 5 5 4 7 5 10 15 9 6 5 3 2 3 10 5 6 6 3 2 1 5 7 8 3 0 4 18 27 32 36
11 12 21 18 16 19 8 10 8 5 3 3 13 8 8 7 7 9 9 6 5 16 10 4 2 4 2 5 2 5 5 3 2 3 6 6 7 10 5 9 7 10 22 31 35
11 6 8 11 17 14 11 9 5 11 7 4 5 5 4 4 10 7 7 4 10 8 23 3 3 1 2 6 10 4 4 3 5 5 5 3 5 3 6 6 12 15 25 32 35
11 4 11 20 13 6 15 9 6 8 20 5 7 4 6 6 5 6 7 2 8 10 9 3 2 4 9 2 4 2 8 9 6 6 5 3 10 1 3 4 11 16 22 28 33
7 14 13 33 8 13 5 13 17 10 11 8 10 11 13 10 5 10 8 4 11 4 7 5 3 2 1 1 1 7 9 16 3 3 12 4 7 1 2 6 6 15 22 28 29
5 3 13 24 12 12 14 10 12 18 14 17 6 9 6 7 7 7 7 5 14 10 22 15 6 6 8 3 4 3 6 10 19 9 4 22 13 4 4 4 7 15 25 30 35
8 5 6 4 7 15 12 7 17 12 17 25 8 20 13 12 11 10 12 6 1 10 16 13 10 12 16 8 7 7 6 9 15 22 9 21 15 18 9 8 16 20 27 32 35
10 6 8 4 7 11 6 14 18 18 12 11 20 21 16 17 18 10 14 11 7 4 5 5 7 9 16 14 15 10 14 15 15 23 22 24 27 10 17 13 9 18 31 33 39
23 23 7 8 2 6 5 5 5 7 10 18 17 6 16 20 6 18 12 7 7 13 14 9 6 7 17 8 9 9 29 23 20 18 20 20 28 24 12 12 23 26 34 39 38
Wind_Direction
200 200 196 202 207 213 217 231 251 271 289 308 325 331 328 333 326 316 290 279 284 289 303 68 58 76 76 50 54 48 62 354 309 94 128 152 109 127 110 129 134 97 144 151 151
221 222 224 225 229 238 248 252 265 278 291 302 311 318 323 330 326 307 315 303 271 211 156 117 64 84 62 36 40 69 93 276 81 354 107 148 115 166 155 155 125 121 131 150 154
232 239 236 239 244 249 258 269 277 287 297 304 308 314 322 334 357 33 32 48 84 145 145 135 110 69 57 16 38 55 159 327 23 49 57 70 117 158 163 160 193 200 170 173 173
245 241 245 249 257 259 264 271 280 286 290 297 302 310 320 326 142 70 66 80 102 119 126 111 79 41 37 339 147 61 280 149 33 5 7 114 284 177 214 230 178 174 180 190 191
239 246 247 248 251 260 267 272 278 286 293 298 304 311 324 295 245 236 269 232 164 162 155 127 99 346 252 357 129 145 321 228 252 247 243 250 246 238 259 209 203 199 199 207 216
228 235 243 249 252 254 261 269 276 282 289 298 305 314 316 273 248 254 257 243 235 210 195 171 116 66 328 309 127 306 312 290 275 235 225 203 257 230 242 211 213 216 223 227 221
231 231 233 241 249 255 259 265 273 280 288 294 301 305 289 268 256 248 252 249 236 222 197 202 218 203 63 321 352 332 327 313 250 223 217 204 287 235 238 206 211 218 225 222 211
236 234 234 235 244 253 258 265 272 279 284 288 294 299 267 255 252 252 256 246 236 219 215 221 217 196 192 123 333 319 342 331 274 164 189 147 268 266 230 200 206 211 214 212 208
238 237 234 234 236 244 254 262 270 276 279 282 285 271 265 244 242 249 248 237 223 217 208 212 174 165 135 100 6 330 246 227 308 174 130 162 257 246 181 200 211 213 216 214 213
231 230 232 227 234 242 248 259 270 272 264 265 242 270 235 224 218 223 202 208 192 178 162 157 154 104 84 115 226 206 226 259 240 231 171 190 254 241 204 213 225 221 217 215 221
232 229 228 231 230 235 247 267 259 251 223 214 178 184 217 215 217 213 190 175 157 172 159 183 125 213 195 198 207 254 220 247 272 258 165 224 237 237 231 221 229 224 218 215 216
226 232 233 233 233 242 233 217 226 244 295 251 243 247 231 226 201 203 177 175 177 195 149 99 222 222 177 199 216 241 255 267 296 219 197 262 252 247 212 219 226 227 222 211 201
221 219 220 226 237 243 244 229 235 307 267 261 245 235 231 226 221 218 187 189 184 181 195 182 224 203 195 221 198 215 215 237 239 302 241 291 269 246 246 229 236 236 228 214 206
230 211 214 212 225 234 244 225 236 76 292 248 210 193 188 186 238 227 205 192 194 204 193 231 239 209 164 194 182 238 218 228 250 294 252 130 289 269 237 250 219 231 215 205 200
237 210 220 219 212 206 229 200 186 167 297 283 125 162 164 170 141 132 191 198 172 187 150 231 178 193 207 210 173 227 134 121 232 229 310 126 302 329 229 254 246 210 199 199 197
290 267 218 242 223 204 207 201 169 115 227 192 113 122 110 169 98 106 150 155 138 24 298 225 125 156 192 82 157 132 68 39 40 51 270 192 196 323 214 241 310 166 186 181 187
265 260 254 247 224 220 201 174 177 189 37 187 177 164 180 161 162 149 152 166 173 138 229 237 223 208 145 122 58 109 102 299 337 302 243 289 211 251 287 253 209 184 182 185 188
254 239 245 246 238 245 210 174 210 204 209 147 125 136 179 148 199 162 143 187 241 215 104 174 268 172 187 201 175 175 152 161 221 220 273 332 234 247 228 304 273 205 194 187 185
261 253 237 237 224 229 207 212 200 211 194 141 99 149 200 175 134 129 194 214 197 193 190 196 257 51 68 147 143 199 196 173 76 38 337 229 284 298 195 233 140 158 168 174 186
250 255 253 244 216 203 223 257 209 219 55 130 200 179 186 190 155 174 179 215 215 190 202 228 219 3 334 90 14 153 169 94 100 213 250 274 259 237 242 225 182 166 174 179 189
227 252 256 226 200 192 220 222 196 214 193 175 221 185 183 173 197 197 192 245 196 179 191 206 159 291 134 201 179 136 215 191 132 174 203 286 257 255 299 222 202 194 185 181 189
215 226 226 203 187 204 227 186 225 188 224 190 172 232 196 163 213 222 220 191 167 137 166 193 73 190 211 254 229 243 202 189 179 211 227 174 251 119 328 315 207 190 187 191 198
230 224 238 200 197 209 214 220 222 189 205 196 203 209 206 201 218 205 214 224 154 128 151 157 218 203 308 9 320 211 208 214 170 79 222 186 254 69 51 108 165 175 187 193 197
259 227 211 229 219 212 220 223 215 217 224 212 181 172 190 201 216 198 213 213 197 154 152 154 180 218 231 144 114 190 224 219 217 224 175 229 261 215 203 142 174 189 194 198 202
221 247 218 197 257 216 194 208 214 219 207 203 217 218 199 220 206 221 213 198 147 211 168 169 208 209 234 218 161 175 219 203 214 233 216 256 240 256 255 262 231 231 198 196 197
220 225 222 273 238 231 261 216 219 218 184 211 219 219 220 224 215 219 222 193 182 197 169 171 225 192 248 237 229 234 228 223 226 236 241 251 262 230 264 267 232 220 198 195 200
227 237 271 236 236 250 216 187 238 226 220 228 215 225 213 225 275 267 214 195 186 179 187 169 175 191 248 179 191 230 232 224 227 224 217 230 242 257 252 239 243 233 207 205 212